When you browse on this site, cookies collect data to enhance your experience and personalize the content and advertising you see.
Visit our Privacy Policy to learn more. By continuing to use the site, you agree to this use of cookies and data.
  • In Spain
  • List of Countries
  • For 7 days
  • Water Temperature
  • Satellite Maps
  • Weather Map
  • Weather Widgets
  • user-avatar
    Login

    Hourly Weather Kipungo

    Today, 13 December, Thursday

    Time Temperature Precipitation Wind Pressure Humidity
    00:00 +21°C° 0 mm 2 mps 654 mmHg 54%
    01:00 +20°C° 0 mm 2 mps 654 mmHg 62%
    02:00 +19°C° 0 mm 2 mps 654 mmHg 64%
    03:00 +20°C° 0 mm 1 mps 654 mmHg 67%
    04:00 +19°C° 0 mm 1 mps 653 mmHg 69%
    05:00 +20°C° 0 mm 1 mps 654 mmHg 63%
    06:00 +22°C° 0 mm 1 mps 655 mmHg 57%
    07:00 +23°C° 0 mm 1 mps 655 mmHg 50%
    08:00 +27°C° 0 mm 2 mps 656 mmHg 39%
    09:00 +30°C° 0 mm 2 mps 657 mmHg 27%
    10:00 +35°C° 0 mm 3 mps 657 mmHg 16%
    11:00 +36°C° 0 mm 3 mps 657 mmHg 15%
    12:00 +38°C° 0 mm 3 mps 657 mmHg 14%
    13:00 +39°C° 0 mm 2 mps 656 mmHg 13%
    14:00 +38°C° 0 mm 2 mps 655 mmHg 15%
    15:00 +37°C° 0 mm 2 mps 655 mmHg 16%
    16:00 +36°C° 0 mm 2 mps 654 mmHg 18%
    17:00 +34°C° 0 mm 2 mps 654 mmHg 21%
    18:00 +30°C° 0 mm 2 mps 654 mmHg 24%
    19:00 +28°C° 0 mm 1 mps 654 mmHg 28%
    20:00 +27°C° 0 mm 2 mps 654 mmHg 31%
    21:00 +26°C° 0 mm 2 mps 654 mmHg 35%
    22:00 +25°C° 0 mm 2 mps 655 mmHg 38%
    23:00 +24°C° 0 mm 2 mps 655 mmHg 40%

    Tomorrow, 14 December, Friday

    Time Temperature Precipitation Wind Pressure Humidity
    00:00 +23°C° 0 mm 2 mps 655 mmHg 42%
    01:00 +23°C° 0 mm 2 mps 654 mmHg 44%
    02:00 +23°C° 0 mm 2 mps 654 mmHg 43%
    03:00 +23°C° 0 mm 2 mps 654 mmHg 42%
    04:00 +23°C° 0 mm 1 mps 654 mmHg 42%
    05:00 +23°C° 0 mm 1 mps 654 mmHg 40%
    06:00 +24°C° 0 mm 1 mps 655 mmHg 39%
    07:00 +24°C° 0 mm 1 mps 656 mmHg 37%
    08:00 +27°C° 0 mm 1 mps 656 mmHg 31%
    09:00 +30°C° 0 mm 2 mps 657 mmHg 25%
    10:00 +34°C° 0 mm 3 mps 657 mmHg 18%
    11:00 +35°C° 0 mm 3 mps 657 mmHg 17%
    12:00 +37°C° 0 mm 3 mps 656 mmHg 16%
    13:00 +39°C° 0 mm 3 mps 656 mmHg 14%
    14:00 +37°C° 0 mm 2 mps 655 mmHg 16%
    15:00 +36°C° 0 mm 2 mps 654 mmHg 18%
    16:00 +34°C° 0 mm 1 mps 654 mmHg 20%
    17:00 +32°C° 0 mm 2 mps 654 mmHg 26%
    18:00 +30°C° 0 mm 3 mps 654 mmHg 32%
    19:00 +28°C° 0 mm 4 mps 654 mmHg 37%
    20:00 +26°C° 0 mm 4 mps 654 mmHg 44%
    21:00 +25°C° 0 mm 4 mps 654 mmHg 52%
    22:00 +22°C° 0 mm 3 mps 655 mmHg 59%
    23:00 +21°C° 0 mm 3 mps 655 mmHg 60%

    Day after tomorrow, 15 December, Saturday

    Time Temperature Precipitation Wind Pressure Humidity
    00:00 +21°C° 0 mm 3 mps 654 mmHg 62%
    01:00 +20°C° 0 mm 2 mps 654 mmHg 64%
    02:00 +20°C° 0 mm 2 mps 654 mmHg 65%
    03:00 +19°C° 0 mm 2 mps 653 mmHg 66%
    04:00 +18°C° 0 mm 2 mps 653 mmHg 67%
    05:00 +20°C° 0 mm 2 mps 654 mmHg 61%
    06:00 +21°C° 0 mm 2 mps 655 mmHg 54%
    07:00 +23°C° 0 mm 1 mps 655 mmHg 48%
    08:00 +26°C° 0 mm 1 mps 656 mmHg 39%
    09:00 +30°C° 0 mm 1 mps 657 mmHg 29%
    10:00 +33°C° 0 mm 1 mps 658 mmHg 20%
    11:00 +35°C° 0 mm 1 mps 657 mmHg 18%
    12:00 +37°C° 0 mm 1 mps 657 mmHg 17%
    13:00 +40°C° 0 mm 1 mps 657 mmHg 15%
    14:00 +39°C° 0 mm 2 mps 656 mmHg 16%
    15:00 +38°C° 0 mm 2 mps 655 mmHg 16%
    16:00 +36°C° 0 mm 2 mps 654 mmHg 17%
    17:00 +34°C° 0 mm 3 mps 654 mmHg 24%
    18:00 +30°C° 0 mm 4 mps 654 mmHg 30%
    19:00 +27°C° 0 mm 5 mps 654 mmHg 37%
    20:00 +26°C° 0 mm 4 mps 654 mmHg 42%
    21:00 +23°C° 0 mm 4 mps 655 mmHg 48%
    22:00 +22°C° 0 mm 3 mps 655 mmHg 53%
    23:00 +21°C° 0 mm 3 mps 655 mmHg 54%

    16 December, Sunday

    Time Temperature Precipitation Wind Pressure Humidity
    00:00 +20°C° 0 mm 3 mps 654 mmHg 55%
    01:00 +19°C° 0 mm 2 mps 654 mmHg 57%
    02:00 +19°C° 0 mm 2 mps 654 mmHg 55%
    03:00 +18°C° 0 mm 2 mps 654 mmHg 54%
    04:00 +19°C° 0 mm 1 mps 653 mmHg 52%
    05:00 +19°C° 0 mm 2 mps 654 mmHg 47%
    06:00 +20°C° 0 mm 2 mps 654 mmHg 43%
    07:00 +21°C° 0 mm 2 mps 655 mmHg 38%
    08:00 +26°C° 0 mm 2 mps 656 mmHg 33%
    09:00 +29°C° 0 mm 2 mps 656 mmHg 28%
    10:00 +32°C° 0 mm 2 mps 657 mmHg 24%
    11:00 +36°C° 0 mm 2 mps 657 mmHg 21%
    12:00 +37°C° 0 mm 1 mps 657 mmHg 19%
    13:00 +40°C° 0 mm 1 mps 656 mmHg 17%
    14:00 +39°C° 0 mm 1 mps 656 mmHg 18%
    15:00 +38°C° 0 mm 2 mps 655 mmHg 18%
    16:00 +36°C° 0 mm 2 mps 654 mmHg 19%
    17:00 +34°C° 0 mm 2 mps 654 mmHg 25%
    18:00 +31°C° 0 mm 3 mps 654 mmHg 31%
    19:00 +28°C° 0 mm 3 mps 654 mmHg 37%
    20:00 +27°C° 0 mm 3 mps 654 mmHg 46%
    21:00 +25°C° 0 mm 3 mps 655 mmHg 55%
    22:00 +24°C° 0 mm 3 mps 655 mmHg 64%
    23:00 +22°C° 0 mm 3 mps 654 mmHg 69%

    17 December, Monday

    Time Temperature Precipitation Wind Pressure Humidity
    00:00 +21°C° 0 mm 2 mps 654 mmHg 74%
    01:00 +20°C° 0 mm 2 mps 654 mmHg 80%
    02:00 +19°C° 0 mm 2 mps 653 mmHg 82%
    03:00 +20°C° 0 mm 1 mps 653 mmHg 84%
    04:00 +17°C° 0 mm 0 mps 653 mmHg 86%
    05:00 +20°C° 0 mm 1 mps 654 mmHg 81%
    06:00 +21°C° 0 mm 1 mps 655 mmHg 75%
    07:00 +21°C° 0 mm 2 mps 655 mmHg 70%
    08:00 +26°C° 0 mm 2 mps 656 mmHg 56%
    09:00 +30°C° 0 mm 2 mps 656 mmHg 43%
    10:00 +35°C° 0 mm 2 mps 657 mmHg 30%
    11:00 +36°C° 0 mm 1 mps 657 mmHg 26%
    12:00 +39°C° 0 mm 1 mps 656 mmHg 22%
    13:00 +41°C° 0 mm 1 mps 656 mmHg 18%
    14:00 +38°C° 0 mm 2 mps 655 mmHg 21%
    15:00 +36°C° 0 mm 2 mps 654 mmHg 24%
    16:00 +34°C° 0 mm 3 mps 653 mmHg 27%
    17:00 +31°C° 0 mm 3 mps 653 mmHg 34%
    18:00 +29°C° 0 mm 3 mps 653 mmHg 41%
    19:00 +27°C° 0 mm 3 mps 653 mmHg 47%
    20:00 +26°C° 0 mm 3 mps 654 mmHg 54%
    21:00 +25°C° 0 mm 3 mps 654 mmHg 60%
    22:00 +22°C° 0 mm 3 mps 654 mmHg 67%
    23:00 +21°C° 0 mm 2 mps 654 mmHg 72%

    18 December, Tuesday

    Time Temperature Precipitation Wind Pressure Humidity
    00:00 +20°C° 0 mm 2 mps 654 mmHg 76%
    01:00 +21°C° 0 mm 1 mps 653 mmHg 80%
    02:00 +20°C° 0 mm 1 mps 653 mmHg 83%
    03:00 +20°C° 0 mm 1 mps 653 mmHg 86%
    04:00 +19°C° 0 mm 1 mps 653 mmHg 89%
    05:00 +20°C° 0 mm 1 mps 654 mmHg 83%
    06:00 +21°C° 0 mm 1 mps 654 mmHg 76%
    07:00 +22°C° 0 mm 1 mps 655 mmHg 70%
    08:00 +26°C° 0 mm 1 mps 655 mmHg 56%
    09:00 +29°C° 0 mm 2 mps 656 mmHg 42%
    10:00 +34°C° 0 mm 2 mps 657 mmHg 28%
    11:00 +35°C° 0 mm 1 mps 656 mmHg 25%
    12:00 +37°C° 0 mm 1 mps 656 mmHg 22%
    13:00 +40°C° 0 mm 1 mps 656 mmHg 19%
    14:00 +37°C° 0 mm 1 mps 654 mmHg 21%
    15:00 +36°C° 0 mm 2 mps 653 mmHg 24%
    16:00 +32°C° 0 mm 2 mps 652 mmHg 26%
    17:00 +31°C° 0 mm 2 mps 653 mmHg 30%
    18:00 +30°C° 0 mm 3 mps 653 mmHg 34%
    19:00 +28°C° 0 mm 3 mps 653 mmHg 38%
    20:00 +27°C° 0 mm 3 mps 653 mmHg 44%
    21:00 +25°C° 0 mm 3 mps 653 mmHg 49%
    22:00 +24°C° 0 mm 3 mps 654 mmHg 55%
    23:00 +22°C° 0 mm 3 mps 653 mmHg 59%
    Show more